[[{"header":{"parameterUnit":"m.s-1","parameterCategory":1,"la1":30.2991,"la2":30.254,"lo1":-89.0895,"lo2":-89.0444,"dy":0.0017,"dx":0.0017,"nx":28,"ny":28,"refTime":"2024-10-01T09:00:00:Z","depth":0,"parameterNumber":2,"parameterNumberName":"U-component_of_WINDS"},"data":[0,0,0,0,0,0,0,0,0,0,0,0,0,0,0,0,0,0,0,0,0,0,0,0,0,0,0,0,0,0,0,0,0,0,0,0,0,0,0,0,0,0,0,0,0,0,0,0,0,0,0,0,0,0,0,0,0,0,0.4207,0.4208,0,0.4312,0.4313,0.4314,0.4315,0.4314,0.4313,0.4312,0.4422,0.4426,0.443,0,0,0,0,0,0,0,0,0,0,0,0,0,0.4013,0.4016,0.4207,0.4208,0.421,0.4312,0.4313,0.4315,0.4316,0.4314,0.4312,0.4311,0.4421,0.4426,0.4431,0,0,0,0,0,0,0,0,0,0,0,0,0,0.4105,0.4017,0.4207,0.4222,0.4225,0.4312,0.4313,0.4315,0.4316,0.4314,0.4312,0.431,0.4419,0.4425,0.4431,0.451,0,0,0.4451,0.4453,0,0,0,0,0,0,0,0,0.41,0.4113,0.4219,0.4222,0.4224,0.4299,0.4285,0.4381,0.4317,0.4282,0.4312,0.4309,0.4383,0.4392,0.4416,0.4516,0.452,0.4451,0.4455,0.4458,0.4459,0,0,0,0,0,0,0,0.4094,0.4108,0.4249,0.422,0.4224,0.4226,0.4237,0.4303,0.4342,0.4284,0.4285,0.4297,0.4384,0.441,0.4419,0.4522,0.4451,0.4457,0.446,0.4463,0.4695,0.4697,0,0,0,0,0,0,0.4084,0.4103,0.4245,0.4252,0.4156,0.4231,0.4243,0.4277,0.4342,0.4349,0.4299,0.4297,0.44,0.4411,0.4423,0.4522,0.4458,0.4464,0.4467,0.4693,0.4696,0.4698,0,0,0,0,0,0,0.4079,0.4096,0.4241,0.4177,0.4196,0.4236,0.4274,0.428,0.4306,0.4352,0.436,0.4318,0.4399,0.4414,0.4489,0.4525,0.4466,0.4472,0.469,0.4694,0.4697,0.4719,0,0,0,0,0,0,0.4074,0.4095,0.4124,0.4178,0.4199,0.4304,0.4276,0.4283,0.4316,0.4315,0.4372,0.438,0.4399,0.448,0.4495,0.4533,0.4477,0.4687,0.4692,0.4696,0.4715,0.4723,0.4729,0,0,0,0,0,0.4067,0.4126,0.4125,0.4143,0.4236,0.4306,0.4319,0.4338,0.4319,0.435,0.438,0.4378,0.4519,0.4487,0.4505,0.4545,0.4685,0.469,0.4696,0.4712,0.4721,0.4729,0,0,0,0,0,0,0.4075,0.4133,0.4133,0.4211,0.4254,0.4306,0.4345,0.4347,0.4397,0.4394,0.4417,0.443,0.4506,0.4533,0.4497,0.4627,0.46,0.4609,0.4606,0.4616,0.4622,0.4615,0.4482,0,0,0,0,0,0.4086,0.4137,0.4185,0.4249,0.4271,0.4305,0.4336,0.4347,0.4393,0.4411,0.4447,0.4492,0.4547,0.4583,0.4635,0.4719,0.4733,0.4756,0.4763,0.4768,0.4776,0.4826,0.4837,0.4716,0.4716,0.4716,0,0,0.4109,0.4147,0.4178,0.4252,0.4287,0.4341,0.432,0.4377,0.4418,0.442,0.4494,0.4522,0.4574,0.4655,0.4692,0.468,0.4813,0.4775,0.4779,0.4784,0.4832,0.4844,0.4854,0.472,0.4719,0.4718,0,0,0.4179,0.4212,0.427,0.4306,0.4358,0.438,0.4395,0.4448,0.4466,0.454,0.4544,0.4594,0.4687,0.4725,0.4756,0.4844,0.4844,0.486,0.4898,0.4945,0.4955,0.4964,0.4997,0.5008,0.4868,0.4868,0.4868,0,0.4202,0.4281,0.43,0.4358,0.4392,0.4397,0.4458,0.4491,0.4559,0.4583,0.4568,0.4686,0.4722,0.4813,0.4834,0.4859,0.4878,0.4854,0.4952,0.4961,0.4969,0.5001,0.5013,0.487,0.4869,0.4869,0.4869,0,0.4308,0.4363,0.4405,0.4469,0.4508,0.4567,0.4597,0.4634,0.4643,0.4667,0.4744,0.4787,0.485,0.4872,0.4881,0.4966,0.4957,0.4946,0.492,0.4982,0.5013,0.5025,0.4872,0.4871,0.4871,0.4871,0,0,0.4385,0.4461,0.4476,0.4507,0.4566,0.461,0.4671,0.4732,0.4764,0.4811,0.4864,0.4944,0.4935,0.4971,0.4985,0.5027,0.5096,0.5012,0.5014,0.5028,0.5195,0.5203,0.5217,0.5097,0.5099,0.5101,0.5191,0,0.4463,0.4569,0.4589,0.4683,0.4736,0.4742,0.4795,0.4839,0.4864,0.4914,0.4943,0.5,0.4983,0.5005,0.5047,0.5079,0.513,0.5072,0.5148,0.5151,0.5136,0.5232,0.5241,0.5323,0.5203,0.5205,0.5206,0,0.4567,0.4617,0.4716,0.477,0.4793,0.4841,0.49,0.4947,0.4997,0.5013,0.5054,0.5064,0.5129,0.5099,0.5191,0.5152,0.5184,0.5205,0.5209,0.5217,0.5183,0.5245,0.535,0.5363,0.5225,0.5223,0.5222,0,0.4616,0.4708,0.478,0.4805,0.487,0.4904,0.4933,0.4981,0.5017,0.5069,0.5093,0.5152,0.5185,0.5232,0.5258,0.5233,0.5349,0.5321,0.5366,0.5366,0.5391,0.5389,0.5504,0.5409,0.5409,0.5409,0.5409,0,0.4702,0.4762,0.4803,0.4847,0.4916,0.4939,0.5008,0.5037,0.508,0.5131,0.514,0.5189,0.522,0.5274,0.5295,0.5369,0.5384,0.54,0.5405,0.54,0.5398,0.5422,0.5418,0.5412,0.5411,0.5411,0.541,0,0.4768,0.4797,0.4876,0.4932,0.4947,0.4996,0.5044,0.5089,0.5115,0.518,0.5197,0.5238,0.5302,0.5332,0.5411,0.5426,0.5511,0.5512,0.5494,0.5496,0.5541,0.5537,0.5676,0.5696,0.5587,0.5588,0.5588,0,0.4821,0.4868,0.4929,0.4964,0.4994,0.5049,0.5087,0.5112,0.5151,0.5214,0.5251,0.5315,0.5368,0.547,0.5508,0.557,0.5573,0.5617,0.5582,0.5576,0.5576,0.5573,0.5579,0.5624,0.5625,0.5626,0.5627,0,0.4913,0.4926,0.4978,0.5037,0.5082,0.5129,0.5176,0.5205,0.5239,0.5282,0.5347,0.5388,0.547,0.5534,0.5599,0.563,0.5635,0.5637,0.5652,0.5647,0.5636,0.5645,0.5513,0.5634,0.5633,0.5633,0.5632,0.5632,0.4976,0.5019,0.5069,0.5128,0.5167,0.5211,0.5256,0.5288,0.5342,0.541,0.5423,0.5493,0.5545,0.5632,0.5666,0.5722,0.5713,0.5732,0.5738,0.5743,0.5746,0.5626,0.5734,0.5734,0.5734,0.5734,0.5734,0,0.507,0.5103,0.5157,0.5223,0.527,0.527,0.5323,0.5363,0.5424,0.5472,0.5524,0.56,0.5664,0.5707,0.5772,0.5809,0.5813,0.5825,0.5824,0.5831,0.575,0.5732,0.5821,0.5821,0.5821,0.5821,0.5821,0.5821,0.5124,0.5198,0.5217,0.5311,0.5344,0.5412,0.5442,0.5484,0.5523,0.5607,0.566,0.5688,0.5735,0.5804,0.5862,0.5874,0.5898,0.5911,0.5922,0.5846,0.5837,0.5828,0.5811,0.5916,0.5916,0.5999,0.6,0.6001]},{"header":{"parameterUnit":"m.s-1","parameterCategory":1,"la1":30.2991,"la2":30.254,"lo1":-89.0895,"lo2":-89.0444,"dy":0.0017,"dx":0.0017,"nx":28,"ny":28,"refTime":"2024-10-01T09:00:00:Z","depth":0,"parameterNumber":3,"parameterNumberName":"V-component_of_WINDS"},"data":[0,0,0,0,0,0,0,0,0,0,0,0,0,0,0,0,0,0,0,0,0,0,0,0,0,0,0,0,0,0,0,0,0,0,0,0,0,0,0,0,0,0,0,0,0,0,0,0,0,0,0,0,0,0,0,0,0,0,-1.1818,-1.1818,0,-1.1782,-1.1782,-1.1782,-1.1845,-1.1847,-1.1849,-1.1851,-1.1808,-1.1805,-1.1802,0,0,0,0,0,0,0,0,0,0,0,0,0,-1.1937,-1.1935,-1.1818,-1.1818,-1.1817,-1.1783,-1.1782,-1.1782,-1.1845,-1.1847,-1.185,-1.1852,-1.1809,-1.1805,-1.1801,0,0,0,0,0,0,0,0,0,0,0,0,0,-1.1892,-1.1934,-1.1818,-1.1845,-1.1847,-1.1783,-1.1782,-1.1781,-1.1844,-1.1847,-1.1851,-1.1854,-1.181,-1.1805,-1.1801,-1.1707,0,0,-1.1786,-1.1784,0,0,0,0,0,0,0,0,-1.1894,-1.1887,-1.1842,-1.1843,-1.1845,-1.1822,-1.1808,-1.1756,-1.1843,-1.1845,-1.1851,-1.1855,-1.1809,-1.1805,-1.1791,-1.1705,-1.1703,-1.1786,-1.1783,-1.1781,-1.178,0,0,0,0,0,0,0,-1.1897,-1.1889,-1.1804,-1.1841,-1.1843,-1.1857,-1.1854,-1.1798,-1.1809,-1.1845,-1.185,-1.1845,-1.1811,-1.1795,-1.179,-1.1702,-1.1786,-1.1782,-1.1779,-1.1777,-1.1538,-1.1535,0,0,0,0,0,0,-1.1898,-1.1891,-1.1805,-1.1803,-1.1878,-1.1852,-1.1849,-1.1826,-1.181,-1.1811,-1.1842,-1.1848,-1.1802,-1.1796,-1.1789,-1.1677,-1.1781,-1.1776,-1.1774,-1.1541,-1.1537,-1.1533,0,0,0,0,0,0,-1.19,-1.189,-1.1807,-1.1848,-1.1839,-1.1847,-1.182,-1.1823,-1.1808,-1.1808,-1.181,-1.1824,-1.1804,-1.1796,-1.1727,-1.1677,-1.1774,-1.177,-1.1546,-1.154,-1.1535,-1.1454,0,0,0,0,0,0,-1.1903,-1.189,-1.1855,-1.1847,-1.1837,-1.1746,-1.1817,-1.182,-1.18,-1.1807,-1.1792,-1.1792,-1.1806,-1.1734,-1.1723,-1.1672,-1.1766,-1.155,-1.1543,-1.1537,-1.1461,-1.1446,-1.1434,0,0,0,0,0,-1.1907,-1.1832,-1.1853,-1.1842,-1.1793,-1.1743,-1.1737,-1.1756,-1.1796,-1.176,-1.1761,-1.1793,-1.1685,-1.1727,-1.1714,-1.1661,-1.1553,-1.1545,-1.1537,-1.1467,-1.1449,-1.1434,0,0,0,0,0,0,-1.183,-1.1831,-1.1854,-1.1775,-1.1759,-1.1754,-1.1709,-1.1737,-1.1708,-1.1715,-1.1739,-1.1735,-1.1661,-1.1655,-1.1701,-1.157,-1.1626,-1.1615,-1.1576,-1.1559,-1.1546,-1.1547,-1.1762,0,0,0,0,0,-1.1805,-1.1766,-1.1768,-1.1697,-1.1689,-1.1701,-1.1679,-1.1696,-1.168,-1.1673,-1.1668,-1.1649,-1.1612,-1.1586,-1.1551,-1.1462,-1.1459,-1.142,-1.1406,-1.1395,-1.1384,-1.1336,-1.1319,-1.1508,-1.1508,-1.1508,0,0,-1.1749,-1.1745,-1.1719,-1.1682,-1.1671,-1.1629,-1.1694,-1.1646,-1.1615,-1.1665,-1.16,-1.1597,-1.1577,-1.1498,-1.1463,-1.1491,-1.1332,-1.1385,-1.1376,-1.1371,-1.1327,-1.1309,-1.1293,-1.1502,-1.1503,-1.1504,0,0,-1.1627,-1.1621,-1.1562,-1.1551,-1.1536,-1.1545,-1.1531,-1.1523,-1.1523,-1.146,-1.1497,-1.146,-1.1394,-1.1379,-1.1362,-1.1239,-1.1266,-1.1227,-1.1155,-1.1108,-1.1093,-1.108,-1.1034,-1.1018,-1.1217,-1.1217,-1.1217,0,-1.156,-1.1499,-1.1527,-1.1477,-1.1459,-1.1507,-1.1446,-1.1434,-1.1407,-1.1393,-1.1426,-1.1346,-1.1336,-1.1254,-1.1224,-1.121,-1.1193,-1.1227,-1.1094,-1.1081,-1.1069,-1.1025,-1.1008,-1.1212,-1.1213,-1.1213,-1.1214,0,-1.1417,-1.1374,-1.1328,-1.1304,-1.1281,-1.1226,-1.1244,-1.1218,-1.1238,-1.1243,-1.1178,-1.117,-1.1134,-1.1117,-1.1134,-1.1037,-1.1055,-1.109,-1.1146,-1.1045,-1.1005,-1.0989,-1.1205,-1.1207,-1.1208,-1.121,0,0,-1.1239,-1.1235,-1.1217,-1.1207,-1.1196,-1.1163,-1.1111,-1.1079,-1.1055,-1.1036,-1.0991,-1.0937,-1.0971,-1.0952,-1.0969,-1.0929,-1.083,-1.0969,-1.0969,-1.0942,-1.0721,-1.0692,-1.0673,-1.0851,-1.0848,-1.0845,-1.0722,0,-1.1117,-1.1028,-1.1053,-1.0963,-1.0923,-1.097,-1.0925,-1.0912,-1.0917,-1.0883,-1.0888,-1.0849,-1.0897,-1.0886,-1.0848,-1.085,-1.0786,-1.086,-1.0806,-1.0804,-1.0806,-1.0652,-1.062,-1.0504,-1.0707,-1.0704,-1.0702,0,-1.096,-1.0938,-1.0845,-1.0842,-1.0827,-1.0785,-1.0759,-1.0727,-1.0714,-1.0721,-1.0702,-1.0728,-1.0676,-1.0735,-1.0662,-1.0712,-1.0693,-1.0691,-1.0687,-1.0679,-1.0744,-1.0637,-1.0468,-1.0449,-1.0678,-1.068,-1.0682,0,-1.0837,-1.0785,-1.0723,-1.0713,-1.0709,-1.0678,-1.0675,-1.0666,-1.0646,-1.0623,-1.0609,-1.058,-1.0562,-1.0539,-1.0556,-1.0598,-1.0479,-1.0541,-1.0481,-1.048,-1.045,-1.0451,-1.0272,-1.0443,-1.0444,-1.0444,-1.0444,0,-1.0695,-1.0636,-1.0668,-1.0629,-1.0564,-1.0594,-1.0528,-1.053,-1.0522,-1.0484,-1.0523,-1.0486,-1.0513,-1.0478,-1.0491,-1.0428,-1.042,-1.0423,-1.0426,-1.0417,-1.0416,-1.0401,-1.0408,-1.0439,-1.044,-1.0441,-1.0442,0,-1.0545,-1.0565,-1.0499,-1.0503,-1.0502,-1.0454,-1.0455,-1.0419,-1.0429,-1.038,-1.037,-1.0384,-1.0345,-1.0362,-1.032,-1.0329,-1.0247,-1.0263,-1.0252,-1.0254,-1.0193,-1.0198,-0.9995,-0.997,-1.016,-1.0158,-1.0157,0,-1.0451,-1.0407,-1.0406,-1.0385,-1.0379,-1.0344,-1.0325,-1.0353,-1.0331,-1.0316,-1.028,-1.0246,-1.0219,-1.0155,-1.016,-1.0128,-1.0142,-1.0074,-1.0137,-1.0129,-1.0138,-1.0139,-1.0134,-1.0059,-1.0057,-1.0055,-1.0054,0,-1.0281,-1.0294,-1.0266,-1.0241,-1.0218,-1.02,-1.0184,-1.0164,-1.0193,-1.0166,-1.0128,-1.0108,-1.0067,-1.0031,-1.0004,-1.0,-1.003,-1.0035,-1.0019,-1.0007,-1.0001,-1.0001,-1.0214,-1.0038,-1.0039,-1.0041,-1.0041,-1.0042,-1.0154,-1.0118,-1.0112,-1.008,-1.0073,-1.0058,-1.0024,-1.0032,-1.0002,-0.9972,-0.9991,-0.9946,-0.9937,-0.9904,-0.9896,-0.986,-0.9887,-0.9864,-0.9858,-0.9851,-0.9842,-1.0011,-0.9856,-0.9856,-0.9857,-0.9857,-0.9858,0,-0.9984,-0.9985,-0.9955,-0.9934,-0.9909,-0.9945,-0.9931,-0.9906,-0.9867,-0.9857,-0.9831,-0.9788,-0.9755,-0.976,-0.9729,-0.97,-0.9713,-0.969,-0.9691,-0.9689,-0.9821,-0.9837,-0.968,-0.968,-0.968,-0.968,-0.968,-0.968,-0.9893,-0.9832,-0.9845,-0.9782,-0.9782,-0.974,-0.9729,-0.9716,-0.9708,-0.9659,-0.9632,-0.9637,-0.9633,-0.9603,-0.9574,-0.9576,-0.9562,-0.9533,-0.954,-0.9662,-0.968,-0.9696,-0.9711,-0.9531,-0.953,-0.9411,-0.941,-0.9409]}]]